Regional Weather Roundup
Issued by NWS

Home | Current Version | Previous Version | Text Only | Print | Product List | Glossary Off
Versions: 1 2 3 4 5 6 7 8 9 10 11 12 13 14 15 16 17 18 19 20 21 22 23 24 25 26 27 28 29 30 31 32 33 34 35 36 37 38 39 40 41 42 43 44 45 46 47 48 49 50

916
ASUS43 KLMK 101510
RWRKY
KENTUCKY REGIONAL WEATHER ROUNDUP
NATIONAL WEATHER SERVICE LOUISVILLE KY
1000 AM EST SAT DEC 10 2016

NOTE "FAIR" INDICATES FEW OR NO CLOUDS BELOW 12,000 FEET
WITH NO SIGNIFICANT WEATHER AND/OR OBSTRUCTIONS TO VISIBILITY.

KYZ001>023-026-027-061>063-070>075-101600-
WESTERN AND SOUTH CENTRAL KENTUCKY

CITY           SKY/WX    TMP DP  RH WIND       PRES   REMARKS
PADUCAH        SUNNY     27  20  75 S6        30.60S WCI  20
HENDERSON      CLOUDY    27  18  69 S3        30.61S
OWENSBORO      CLOUDY    27  22  81 S7        30.62R WCI  19
HOPKINSVILLE   SUNNY     26  18  70 SE5       30.61R WCI  21
BOWLING GREEN  MOSUNNY   25  20  81 CALM      30.63F
GLASGOW        SUNNY     25  20  82 CALM      30.61F
$$

KYZ024-025-028>034-038-045-046-053-101600-
NORTH CENTRAL KENTUCKY

CITY           SKY/WX    TMP DP  RH WIND       PRES   REMARKS
LOUISVILLE/SDF MOSUNNY   27  15  61 SW8       30.62R WCI  19
LOUISVILLE/LOU SUNNY     25  16  68 SW5       30.62R WCI  19
FORT KNOX      CLOUDY    23  17  79 S6        30.58R WCI  15
$$

KYZ035>037-039>044-047>052-055>060-089>105-101600-
NORTHEAST KENTUCKY

CITY           SKY/WX    TMP DP  RH WIND       PRES   REMARKS
LEXINGTON      SUNNY     24  15  68 SW6       30.59R WCI  17
COVINGTON      PTSUNNY   24  18  77 SW6       30.56R WCI  17
FRANKFORT      SUNNY     24  15  68 SW7       30.59R WCI  16
$$

KYZ054-064>069-076>088-106>120-101600-
SOUTHEAST KENTUCKY

CITY           SKY/WX    TMP DP  RH WIND       PRES   REMARKS
JACKSON        CLOUDY    22  17  81 CALM      30.57R
LONDON         SUNNY     21  15  78 VRB3      30.59R
SOMERSET       FOG       19  19 100 CALM      30.63R VSB 1/2
MIDDLESBORO    SUNNY     21  17  85 CALM      30.60R
MONTICELLO     SUNNY     28  24  85 VRB6      30.63R WCI  22
$$





USA.gov is the U.S. government's official web portal to all federal, state and local government web resources and services.